When you browse on this site, cookies collect data to enhance your experience and personalize the content and advertising you see.
Visit our Privacy Policy to learn more. By continuing to use the site, you agree to this use of cookies and data.
  • Em Portugal
  • Lista de países
  • Para 7 dias
  • Temperatura da água
  • Mapas de satélite
  • Mapa do tempo
  • Widgets de tempo
  • user-avatar
    Iniciar Sessão

    Previsão horária em Cisow

    Hoje, 24 Março, Domingo

    Tempo Temperatura Precipitação Vento Pressão Humidade
    00:00 +9°C° 0 mm 3 m/s 733 mmHg 90%
    01:00 +8°C° 0 mm 3 m/s 733 mmHg 87%
    02:00 +7°C° 0 mm 2 m/s 733 mmHg 87%
    03:00 +7°C° 0 mm 2 m/s 733 mmHg 87%
    04:00 +6°C° 0 mm 2 m/s 733 mmHg 87%
    05:00 +6°C° 0 mm 2 m/s 733 mmHg 88%
    06:00 +5°C° 0 mm 2 m/s 733 mmHg 89%
    07:00 +6°C° 0 mm 1 m/s 733 mmHg 88%
    08:00 +7°C° 0 mm 1 m/s 733 mmHg 80%
    09:00 +7°C° 0 mm 2 m/s 732 mmHg 72%
    10:00 +8°C° 0 mm 2 m/s 732 mmHg 64%
    11:00 +9°C° 0 mm 2 m/s 732 mmHg 62%
    12:00 +9°C° 0 mm 2 m/s 731 mmHg 59%
    13:00 +10°C° 0 mm 2 m/s 731 mmHg 57%
    14:00 +10°C° 0 mm 1 m/s 730 mmHg 59%
    15:00 +10°C° 0 mm 1 m/s 730 mmHg 61%
    16:00 +10°C° 0 mm 1 m/s 729 mmHg 62%
    17:00 +9°C° 0.1 mm 1 m/s 729 mmHg 65%
    18:00 +9°C° 0.1 mm 1 m/s 728 mmHg 68%
    19:00 +8°C° 0.1 mm 1 m/s 728 mmHg 71%
    20:00 +8°C° 0 mm 1 m/s 728 mmHg 74%
    21:00 +7°C° 0 mm 1 m/s 728 mmHg 76%
    22:00 +7°C° 0 mm 1 m/s 727 mmHg 79%
    23:00 +7°C° 0 mm 1 m/s 727 mmHg 79%

    Amanhã, 25 Março, Segunda-feira

    Tempo Temperatura Precipitação Vento Pressão Humidade
    00:00 +5°C° 0 mm 2 m/s 727 mmHg 80%
    01:00 +5°C° 0 mm 2 m/s 726 mmHg 80%
    02:00 +4°C° 0 mm 2 m/s 726 mmHg 82%
    03:00 +4°C° 0 mm 2 m/s 725 mmHg 83%
    04:00 +2°C° 0 mm 3 m/s 725 mmHg 84%
    05:00 +2°C° 0 mm 3 m/s 724 mmHg 83%
    06:00 +2°C° 0 mm 3 m/s 724 mmHg 81%
    07:00 +2°C° 0 mm 3 m/s 724 mmHg 79%
    08:00 +3°C° 0 mm 4 m/s 724 mmHg 71%
    09:00 +3°C° 0 mm 5 m/s 724 mmHg 62%
    10:00 +4°C° 0 mm 6 m/s 723 mmHg 54%
    11:00 +4°C° 0.4 mm 6 m/s 723 mmHg 60%
    12:00 +3°C° 0.4 mm 6 m/s 723 mmHg 67%
    13:00 +2°C° 0.4 mm 7 m/s 723 mmHg 73%
    14:00 +3°C° 0 mm 6 m/s 723 mmHg 67%
    15:00 +3°C° 0 mm 6 m/s 723 mmHg 61%
    16:00 +4°C° 0 mm 6 m/s 723 mmHg 56%
    17:00 +3°C° 0 mm 5 m/s 724 mmHg 62%
    18:00 +3°C° 0 mm 4 m/s 724 mmHg 68%
    19:00 +2°C° 0 mm 3 m/s 725 mmHg 74%
    20:00 +1°C° 0 mm 3 m/s 726 mmHg 77%
    21:00 +1°C° 0 mm 3 m/s 726 mmHg 81%
    22:00 0°C° 0 mm 3 m/s 727 mmHg 84%
    23:00 0°C° 0 mm 3 m/s 728 mmHg 86%

    Depois de amanhã, 26 Março, Terça-feira

    Tempo Temperatura Precipitação Vento Pressão Humidade
    00:00 -1°C° 0 mm 3 m/s 728 mmHg 88%
    01:00 -1°C° 0 mm 3 m/s 729 mmHg 91%
    02:00 -1°C° 0 mm 3 m/s 729 mmHg 91%
    03:00 -1°C° 0 mm 3 m/s 729 mmHg 92%
    04:00 -1°C° 0 mm 3 m/s 730 mmHg 93%
    05:00 -1°C° 0 mm 3 m/s 730 mmHg 91%
    06:00 -1°C° 0 mm 3 m/s 730 mmHg 90%
    07:00 -1°C° 0 mm 3 m/s 731 mmHg 88%
    08:00 0°C° 0 mm 4 m/s 731 mmHg 78%
    09:00 +2°C° 0 mm 5 m/s 731 mmHg 69%
    10:00 +5°C° 0 mm 5 m/s 732 mmHg 60%
    11:00 +4°C° 0 mm 6 m/s 731 mmHg 60%
    12:00 +4°C° 0 mm 7 m/s 731 mmHg 61%
    13:00 +5°C° 0 mm 8 m/s 731 mmHg 61%
    14:00 +4°C° 0 mm 8 m/s 731 mmHg 63%
    15:00 +2°C° 0 mm 8 m/s 731 mmHg 65%
    16:00 +1°C° 0 mm 8 m/s 730 mmHg 67%
    17:00 +2°C° 0 mm 7 m/s 731 mmHg 70%
    18:00 +1°C° 0 mm 6 m/s 731 mmHg 74%
    19:00 +1°C° 0 mm 5 m/s 731 mmHg 77%
    20:00 +1°C° 0 mm 5 m/s 732 mmHg 78%
    21:00 +1°C° 0 mm 5 m/s 732 mmHg 80%
    22:00 0°C° 0 mm 5 m/s 732 mmHg 82%
    23:00 0°C° 0 mm 4 m/s 732 mmHg 85%

    27 Março, Quarta-feira

    Tempo Temperatura Precipitação Vento Pressão Humidade
    00:00 +1°C° 0 mm 3 m/s 733 mmHg 89%
    01:00 +1°C° 0 mm 2 m/s 733 mmHg 92%
    02:00 +1°C° 0 mm 2 m/s 733 mmHg 93%
    03:00 +1°C° 0 mm 2 m/s 733 mmHg 94%
    04:00 -1°C° 0 mm 2 m/s 733 mmHg 95%
    05:00 +1°C° 0 mm 2 m/s 733 mmHg 92%
    06:00 +1°C° 0 mm 2 m/s 733 mmHg 90%
    07:00 +1°C° 0 mm 2 m/s 733 mmHg 87%
    08:00 +3°C° 0 mm 2 m/s 734 mmHg 83%
    09:00 +3°C° 0 mm 3 m/s 734 mmHg 78%
    10:00 +5°C° 0 mm 3 m/s 734 mmHg 73%
    11:00 +5°C° 0 mm 3 m/s 734 mmHg 70%
    12:00 +7°C° 0 mm 3 m/s 734 mmHg 68%
    13:00 +6°C° 0 mm 4 m/s 734 mmHg 65%
    14:00 +6°C° 0 mm 4 m/s 734 mmHg 64%
    15:00 +6°C° 0 mm 4 m/s 734 mmHg 63%
    16:00 +6°C° 0 mm 4 m/s 734 mmHg 63%
    17:00 +5°C° 0 mm 3 m/s 734 mmHg 69%
    18:00 +4°C° 0 mm 3 m/s 734 mmHg 76%
    19:00 +3°C° 0 mm 2 m/s 734 mmHg 82%
    20:00 +3°C° 0 mm 2 m/s 734 mmHg 83%
    21:00 +3°C° 0 mm 2 m/s 734 mmHg 84%
    22:00 +3°C° 0 mm 2 m/s 734 mmHg 86%
    23:00 +4°C° 0.1 mm 2 m/s 734 mmHg 86%

    28 Março, Quinta-feira

    Tempo Temperatura Precipitação Vento Pressão Humidade
    00:00 +4°C° 0.1 mm 2 m/s 734 mmHg 86%
    01:00 +4°C° 0.1 mm 2 m/s 734 mmHg 87%
    02:00 +4°C° 0.1 mm 2 m/s 734 mmHg 88%
    03:00 +4°C° 0.1 mm 2 m/s 734 mmHg 88%
    04:00 +4°C° 0.1 mm 2 m/s 734 mmHg 89%
    05:00 +4°C° 0.1 mm 2 m/s 734 mmHg 89%
    06:00 +5°C° 0.1 mm 1 m/s 735 mmHg 90%
    07:00 +6°C° 0.1 mm 1 m/s 735 mmHg 90%
    08:00 +6°C° 0.1 mm 1 m/s 735 mmHg 88%
    09:00 +7°C° 0.1 mm 1 m/s 736 mmHg 87%
    10:00 +7°C° 0.1 mm 1 m/s 736 mmHg 85%
    11:00 +8°C° 0.1 mm 1 m/s 736 mmHg 82%
    12:00 +8°C° 0.1 mm 1 m/s 736 mmHg 79%
    13:00 +9°C° 0.1 mm 1 m/s 736 mmHg 76%
    14:00 +9°C° 0 mm 1 m/s 736 mmHg 74%
    15:00 +8°C° 0 mm 2 m/s 736 mmHg 73%
    16:00 +8°C° 0 mm 2 m/s 736 mmHg 71%
    17:00 +7°C° 0 mm 2 m/s 736 mmHg 75%
    18:00 +7°C° 0 mm 1 m/s 736 mmHg 79%
    19:00 +6°C° 0 mm 1 m/s 737 mmHg 83%
    20:00 +6°C° 0 mm 1 m/s 737 mmHg 84%
    21:00 +6°C° 0 mm 1 m/s 737 mmHg 85%
    22:00 +5°C° 0 mm 1 m/s 737 mmHg 86%
    23:00 +4°C° 0 mm 0 m/s 737 mmHg 87%

    29 Março, Sexta-feira

    Tempo Temperatura Precipitação Vento Pressão Humidade
    00:00 +3°C° 0 mm 0 m/s 737 mmHg 88%
    01:00 +3°C° 0 mm 0 m/s 737 mmHg 88%
    02:00 +3°C° 0 mm 0 m/s 737 mmHg 89%
    03:00 +2°C° 0 mm 0 m/s 737 mmHg 89%
    04:00 +2°C° 0 mm 0 m/s 737 mmHg 89%
    05:00 +3°C° 0 mm 0 m/s 738 mmHg 88%
    06:00 +3°C° 0 mm 0 m/s 738 mmHg 86%
    07:00 +4°C° 0 mm 0 m/s 738 mmHg 85%
    08:00 +6°C° 0 mm 0 m/s 738 mmHg 78%
    09:00 +9°C° 0 mm 1 m/s 738 mmHg 72%
    10:00 +11°C° 0 mm 1 m/s 738 mmHg 65%
    11:00 +12°C° 0 mm 1 m/s 738 mmHg 61%
    12:00 +12°C° 0 mm 1 m/s 737 mmHg 57%
    13:00 +13°C° 0 mm 1 m/s 737 mmHg 53%
    14:00 +13°C° 0 mm 1 m/s 737 mmHg 52%
    15:00 +13°C° 0 mm 1 m/s 736 mmHg 51%
    16:00 +14°C° 0 mm 1 m/s 736 mmHg 50%
    17:00 +12°C° 0 mm 1 m/s 736 mmHg 56%
    18:00 +10°C° 0 mm 1 m/s 735 mmHg 63%
    19:00 +8°C° 0 mm 0 m/s 735 mmHg 69%
    20:00 +8°C° 0 mm 1 m/s 735 mmHg 71%
    21:00 +7°C° 0 mm 1 m/s 735 mmHg 74%
    22:00 +7°C° 0 mm 1 m/s 735 mmHg 76%
    23:00 +6°C° 0 mm 1 m/s 735 mmHg 77%
    Mostrar mais